STARLINK-3864, 52468

Orbit data source: Space-Track

STARLINK-3864, 52468 is a payload satellite owned by SpaceX/Seattle (US) in LEO that was launched on Fri, 06 May 2022 UTC via an FALCON 9 launch vehicle from the Air Force Eastern Test Range (AFETR). Payload-class satellites include a variety of spacecraft equipped with specific instruments for various scientific and technological missions. These include communications satellites like Starlink; space stations such as the ISS; scientific satellites like the Hubble; Earth observation satellites from companies like Planet Labs, Umbra, and HawkEye 360; GPS; miniature CubeSats for education and research; and military/defense satellites.

Loading next visibility...
Identifier
52468, 2022-049T
Orbit
LEO
Country
Flag of USUS
Related business
Manufacturer
SpaceX/Seattle
Mission
Operational Commercial Communications
Bus & Motor
STARLINK, Unknown motor
Mass
297 kg wet, ~220 kg dry
Launch date (UTC)
2022-05-06 (4 years ago)
Launch vehicle
FALCON 9
Launch site
Air Force Eastern Test Range (AFETR)
Object type
Payload
Rocket body
Debris
Shape & HBR
Box + 1 Pan, 10.1 m
Radar Cross Section
13.562 m², Large (>1 m²)

Expand to show TLE details & history
Last TLE update: 16 hours ago

TLE from 16 hours ago
0 STARLINK-3864
1 52468U 22049T   26206.58335648  .00024641  00000-0  10738-2 0  9998
2 52468  53.1594 159.2613 0000522 110.6665 265.4323 15.22078504  5807
Epoch: 2026-07-25T14:00Z
TLE epoch observation values (Epoch: 2026-07-25T14:00:01.999Z)
Latitude
12.81703°
Longitude
15.71868°
Altitude
499.737 km
Speed
7.617 km/s
True Right ascension
11h 16m 04s
True Declination
12° 44' 24"
Sunlit
Object was in daylight at epoch
Visualization orbit readout
Latitude
Unknown
Longitude
Unknown
Altitude
Unknown
Speed
Unknown
Apparent Right ascension
Unknown
Apparent Declination
Unknown
Sunlit
N/A
Visualization observer readout
Local Sidereal Time
19:22:40
Azimuth
Unknown
Elevation
Unknown
Doppler factor
Unknown
Orbital elements
Apogee altitude
500.187 km
Perigee altitude
499.469 km
Semi-major axis
6,877.965 km
Eccentricity
0.00005
Inclination
53.1594°
RAAN
159.2613°
Arg. of periapsis
110.6665°
True anomaly
265.42634°
Mean anomaly
265.4323°
Eccentric anomaly
265.42932°
Mean motion
3.80499 °/min
Orbital period
94.61 mins
BSTAR
0.0010738
Loading maneuver chart data...
Computing Atmospheric mass density...
Loading historical data...
Loading historical data...
Loading historical data...
Loading historical data...
Loading historical data...
Loading historical data...
Loading historical data...

Documentation

Showing up to 5 results
|